| time (UTC) | temp F | wind direction | speed MPH | gust MPH | rain 1hr in | rain 24hr in | rain mn in | humidity % | barometer mb |
| 20260906220005 | 93 | 118 | 1.0 | 4.0 | 0.00 | 0.03 | 0.00 | 57 | 1010.3 |
| 20260906215006 | 94 | 140 | 2.0 | 4.0 | 0.00 | 0.03 | 0.00 | 56 | 1010.3 |
| 20260906214006 | 94 | 167 | 1.0 | 4.0 | 0.00 | 0.03 | 0.00 | 56 | 1010.3 |
| 20260906212005 | 95 | 112 | 1.0 | 4.0 | 0.00 | 0.04 | 0.00 | 60 | 1010.6 |
| 20260906211005 | 95 | 50 | 3.0 | 7.0 | 0.00 | 0.04 | 0.00 | 55 | 1010.8 |
| 20260906205005 | 94 | 61 | 1.0 | 6.0 | 0.00 | 0.04 | 0.00 | 61 | 1010.9 |
| 20260906203006 | 93 | 55 | 3.0 | 8.0 | 0.00 | 0.04 | 0.00 | 62 | 1011.2 |
| 20260906202004 | 93 | 51 | 2.0 | 7.0 | 0.00 | 0.06 | 0.00 | 61 | 1011.3 |
| 20260906201006 | 92 | 55 | 3.0 | 8.0 | 0.00 | 0.06 | 0.00 | 62 | 1011.4 |
| 20260906200006 | 92 | 104 | 2.0 | 6.0 | 0.00 | 0.06 | 0.00 | 65 | 1011.4 |
| 20260906195004 | 92 | 106 | 2.0 | 7.0 | 0.00 | 0.06 | 0.00 | 63 | 1011.5 |
| 20260906194005 | 91 | 132 | 1.0 | 3.0 | 0.00 | 0.06 | 0.00 | 64 | 1011.7 |
| 20260906193005 | 91 | 100 | 1.0 | 3.0 | 0.00 | 0.06 | 0.00 | 64 | 1011.7 |
| 20260906192005 | 91 | 170 | 2.0 | 6.0 | 0.00 | 0.06 | 0.00 | 63 | 1011.7 |
| 20260906191005 | 90 | 101 | 1.0 | 8.0 | 0.00 | 0.06 | 0.00 | 67 | 1011.7 |
| 20260906190005 | 90 | 174 | 1.0 | 4.0 | 0.00 | 0.06 | 0.00 | 65 | 1011.9 |
| 20260906184005 | 90 | 65 | 2.0 | 3.0 | 0.00 | 0.06 | 0.00 | 67 | 1012.3 |
| 20260906183005 | 89 | 79 | 2.0 | 5.0 | 0.00 | 0.06 | 0.00 | 67 | 1012.4 |
| 20260906182006 | 90 | 67 | 3.0 | 7.0 | 0.00 | 0.06 | 0.00 | 68 | 1012.5 |
| 20260906181005 | 90 | 50 | 2.0 | 7.0 | 0.00 | 0.06 | 0.00 | 70 | 1012.5 |
| 20260906180005 | 89 | 85 | 2.0 | 7.0 | 0.00 | 0.06 | 0.00 | 71 | 1012.8 |
| 20260906174006 | 88 | 78 | 1.0 | 5.0 | 0.00 | 0.06 | 0.00 | 71 | 1013.0 |
| 20260906173005 | 88 | 71 | 2.0 | 6.0 | 0.00 | 0.06 | 0.00 | 73 | 1013.1 |
| 20260906172004 | 86 | 75 | 1.0 | 7.0 | 0.00 | 0.06 | 0.00 | 77 | 1013.3 |
| 20260906171005 | 84 | 55 | 2.0 | 5.0 | 0.00 | 0.06 | 0.00 | 88 | 1013.6 |
| 20260906165006 | 81 | 33 | 1.0 | 3.0 | 0.00 | 0.06 | 0.00 | 94 | 1013.5 |
| 20260906164005 | 80 | 125 | 1.0 | 3.0 | 0.00 | 0.06 | 0.00 | 95 | 1013.6 |
| 20260906163004 | 80 | 57 | 2.0 | 7.0 | 0.00 | 0.06 | 0.00 | 96 | 1013.6 |
| 20260906162005 | 80 | 24 | 1.0 | 5.0 | 0.00 | 0.06 | 0.00 | 96 | 1013.7 |
| 20260906161004 | 80 | 185 | 1.0 | 3.0 | 0.00 | 0.06 | 0.00 | 96 | 1013.7 |
| 20260906160004 | 79 | 69 | 1.0 | 3.0 | 0.00 | 0.06 | 0.00 | 96 | 1013.8 |
| 20260906155005 | 79 | 57 | 0.0 | 4.0 | 0.00 | 0.06 | 0.00 | 96 | 1013.9 |
| 20260906154005 | 78 | 0 | 0.0 | 3.0 | 0.00 | 0.06 | 0.00 | 96 | 1013.8 |
| 20260906151006 | 77 | 46 | 1.0 | 4.0 | 0.00 | 0.06 | 0.00 | 96 | 1013.6 |
| 20260906150004 | 77 | 39 | 1.0 | 3.0 | 0.00 | 0.06 | 0.00 | 95 | 1013.8 |
| 20260906145005 | 77 | 62 | 1.0 | 3.0 | 0.00 | 0.06 | 0.00 | 95 | 1013.8 |
| 20260906144004 | 76 | 0 | 0.0 | 2.0 | 0.00 | 0.06 | 0.00 | 95 | 1013.8 |
| 20260906143005 | 76 | 0 | 0.0 | 2.0 | 0.00 | 0.06 | 0.00 | 95 | 1013.8 |
| 20260906141004 | 76 | 0 | 0.0 | 1.0 | 0.00 | 0.06 | 0.00 | 95 | 1013.7 |
| 20260906140006 | 76 | 0 | 0.0 | 2.0 | 0.00 | 0.06 | 0.00 | 95 | 1013.6 |
| 20260906135005 | 75 | 0 | 0.0 | 1.0 | 0.00 | 0.06 | 0.00 | 95 | 1013.3 |
| 20260906134004 | 75 | 56 | 0.0 | 1.0 | 0.00 | 0.06 | 0.00 | 95 | 1013.2 |
| 20260906133005 | 75 | 43 | 1.0 | 3.0 | 0.00 | 0.06 | 0.00 | 95 | 1013.2 |
| 20260906132004 | 74 | 0 | 0.0 | 3.0 | 0.00 | 0.06 | 0.00 | 95 | 1013.1 |
| 20260906130005 | 74 | 0 | 0.0 | 0.0 | 0.00 | 0.06 | 0.00 | 95 | 1013.0 |
| 20260906125005 | 74 | 0 | 0.0 | 0.0 | 0.00 | 0.06 | 0.00 | 95 | 1012.9 |
| 20260906121005 | 74 | 0 | 0.0 | 0.0 | 0.00 | 0.06 | 0.00 | 94 | 1012.8 |
| 20260906115004 | 74 | 0 | 0.0 | 0.0 | 0.00 | 0.06 | 0.00 | 94 | 1012.6 |
| 20260906114004 | 74 | 0 | 0.0 | 0.0 | 0.00 | 0.06 | 0.00 | 94 | 1012.4 |
| 20260906112004 | 74 | 0 | 0.0 | 0.0 | 0.00 | 0.06 | 0.00 | 94 | 1012.1 |
| 20260906110004 | 74 | 0 | 0.0 | 0.0 | 0.00 | 0.06 | 0.00 | 94 | 1012.1 |
| 20260906105004 | 74 | 0 | 0.0 | 0.0 | 0.00 | 0.06 | 0.00 | 94 | 1012.0 |
| 20260906103004 | 75 | 0 | 0.0 | 1.0 | 0.00 | 0.06 | 0.00 | 94 | 1011.8 |
| 20260906101004 | 75 | 0 | 0.0 | 0.0 | 0.00 | 0.06 | 0.00 | 94 | 1011.6 |
| 20260906100005 | 75 | 0 | 0.0 | 0.0 | 0.00 | 0.06 | 0.00 | 94 | 1011.5 |
| 20260906095005 | 75 | 0 | 0.0 | 1.0 | 0.00 | 0.06 | 0.00 | 94 | 1011.5 |
| 20260906094005 | 75 | 0 | 0.0 | 0.0 | 0.00 | 0.06 | 0.00 | 94 | 1011.4 |
| 20260906092004 | 76 | 0 | 0.0 | 0.0 | 0.00 | 0.06 | 0.00 | 94 | 1011.7 |
| 20260906091004 | 76 | 0 | 0.0 | 0.0 | 0.00 | 0.06 | 0.00 | 95 | 1011.7 |
| 20260906090005 | 76 | 0 | 0.0 | 1.0 | 0.00 | 0.06 | 0.00 | 95 | 1011.7 |
| 20260906085004 | 76 | 0 | 0.0 | 2.0 | 0.00 | 0.06 | 0.00 | 95 | 1011.7 |
| 20260906084005 | 76 | 0 | 0.0 | 2.0 | 0.00 | 0.06 | 0.00 | 95 | 1011.6 |
| 20260906083004 | 76 | 0 | 0.0 | 1.0 | 0.00 | 0.06 | 0.00 | 95 | 1011.5 |
| 20260906082004 | 76 | 0 | 0.0 | 3.0 | 0.00 | 0.06 | 0.00 | 94 | 1011.6 |
| 20260906081004 | 76 | 0 | 0.0 | 1.0 | 0.00 | 0.06 | 0.00 | 94 | 1011.6 |
| 20260906080004 | 75 | 0 | 0.0 | 1.0 | 0.00 | 0.06 | 0.00 | 94 | 1011.6 |
| 20260906075004 | 75 | 0 | 0.0 | 0.0 | 0.00 | 0.06 | 0.00 | 94 | 1011.6 |
| 20260906074004 | 75 | 0 | 0.0 | 0.0 | 0.00 | 0.06 | 0.00 | 94 | 1011.8 |
| 20260906073005 | 75 | 0 | 0.0 | 1.0 | 0.00 | 0.06 | 0.00 | 94 | 1011.8 |
| 20260906072005 | 76 | 0 | 0.0 | 1.0 | 0.00 | 0.06 | 0.00 | 94 | 1011.7 |
| 20260906070005 | 75 | 0 | 0.0 | 0.0 | 0.00 | 0.06 | 0.00 | 94 | 1011.6 |
| 20260906065004 | 75 | 0 | 0.0 | 0.0 | 0.00 | 0.06 | 0.00 | 93 | 1011.6 |
| 20260906064004 | 76 | 0 | 0.0 | 0.0 | 0.00 | 0.06 | 0.00 | 93 | 1011.6 |
| 20260906063007 | 76 | 0 | 0.0 | 0.0 | 0.00 | 0.06 | 0.00 | 94 | 1011.6 |
| 20260906062004 | 76 | 0 | 0.0 | 0.0 | 0.00 | 0.06 | 0.00 | 94 | 1011.5 |
| 20260906061004 | 76 | 0 | 0.0 | 1.0 | 0.00 | 0.06 | 0.00 | 94 | 1011.4 |
| 20260906060016 | 76 | 0 | 0.0 | 1.0 | 0.00 | 0.06 | 0.00 | 94 | 1011.4 |
| 20260906055016 | 76 | 0 | 0.0 | 1.0 | 0.00 | 0.06 | 0.00 | 94 | 1011.5 |
| 20260906054015 | 76 | 0 | 0.0 | 1.0 | 0.00 | 0.06 | 0.00 | 94 | 1011.4 |
| 20260906053016 | 76 | 0 | 0.0 | 0.0 | 0.00 | 0.06 | 0.00 | 94 | 1011.5 |
| 20260906052015 | 76 | 0 | 0.0 | 0.0 | 0.00 | 0.06 | 0.00 | 94 | 1011.4 |
| 20260906051016 | 76 | 0 | 0.0 | 0.0 | 0.00 | 0.06 | 0.00 | 94 | 1011.3 |
| 20260906050017 | 76 | 0 | 0.0 | 1.0 | 0.00 | 0.06 | 0.00 | 93 | 1011.2 |
| 20260906045015 | 76 | 0 | 0.0 | 0.0 | 0.00 | 0.06 | 0.06 | 93 | 1011.2 |
| 20260906044015 | 76 | 0 | 0.0 | 0.0 | 0.00 | 0.06 | 0.06 | 93 | 1011.4 |
| 20260906043015 | 76 | 0 | 0.0 | 0.0 | 0.00 | 0.06 | 0.06 | 93 | 1011.4 |
| 20260906042015 | 76 | 0 | 0.0 | 0.0 | 0.00 | 0.06 | 0.06 | 93 | 1011.5 |
| 20260906041016 | 76 | 0 | 0.0 | 0.0 | 0.00 | 0.06 | 0.06 | 93 | 1011.4 |
| 20260906040015 | 76 | 0 | 0.0 | 0.0 | 0.00 | 0.06 | 0.06 | 93 | 1011.2 |
| 20260906035016 | 76 | 0 | 0.0 | 0.0 | 0.00 | 0.06 | 0.06 | 93 | 1011.4 |
| 20260906033016 | 77 | 0 | 0.0 | 0.0 | 0.00 | 0.06 | 0.06 | 93 | 1011.8 |
| 20260906031016 | 77 | 0 | 0.0 | 0.0 | 0.00 | 0.06 | 0.06 | 93 | 1011.4 |
| 20260906024016 | 77 | 0 | 0.0 | 2.0 | 0.00 | 0.06 | 0.06 | 93 | 1011.4 |
| 20260906023015 | 77 | 0 | 0.0 | 0.0 | 0.00 | 0.06 | 0.06 | 93 | 1011.3 |
| 20260906022015 | 78 | 0 | 0.0 | 2.0 | 0.00 | 0.06 | 0.06 | 93 | 1011.3 |
| 20260906021015 | 78 | 53 | 0.0 | 1.0 | 0.00 | 0.06 | 0.06 | 93 | 1011.3 |
| 20260906020015 | 78 | 53 | 1.0 | 2.0 | 0.00 | 0.06 | 0.06 | 93 | 1011.2 |
| 20260906014016 | 78 | 0 | 0.0 | 1.0 | 0.00 | 0.06 | 0.06 | 93 | 1011.5 |
| 20260906013016 | 79 | 199 | 1.0 | 1.0 | 0.00 | 0.06 | 0.06 | 93 | 1011.3 |
| 20260906012017 | 79 | 138 | 1.0 | 3.0 | 0.00 | 0.06 | 0.06 | 93 | 1011.3 |
| 20260906011015 | 79 | 85 | 0.0 | 3.0 | 0.00 | 0.06 | 0.06 | 93 | 1011.4 |
| 20260906010015 | 79 | 0 | 0.0 | 2.0 | 0.00 | 0.06 | 0.06 | 93 | 1011.5 |
| 20260906003016 | 79 | 137 | 0.0 | 1.0 | 0.00 | 0.06 | 0.06 | 93 | 1011.0 |
| 20260906002015 | 79 | 210 | 1.0 | 3.0 | 0.00 | 0.06 | 0.06 | 93 | 1011.2 |
| 20260906000015 | 79 | 252 | 1.0 | 2.0 | 0.01 | 0.06 | 0.06 | 93 | 1011.4 |
| 20260905235015 | 79 | 284 | 0.0 | 2.0 | 0.01 | 0.06 | 0.06 | 93 | 1011.4 |
| 20260905233015 | 79 | 0 | 0.0 | 1.0 | 0.02 | 0.06 | 0.06 | 92 | 1011.2 |
| 20260905231015 | 79 | 0 | 0.0 | 1.0 | 0.02 | 0.06 | 0.06 | 92 | 1011.1 |
| 20260905230015 | 79 | 0 | 0.0 | 0.0 | 0.02 | 0.05 | 0.05 | 92 | 1011.1 |
| 20260905225015 | 79 | 0 | 0.0 | 0.0 | 0.02 | 0.05 | 0.05 | 92 | 1010.8 |
| 20260905224015 | 79 | 0 | 0.0 | 0.0 | 0.02 | 0.05 | 0.05 | 92 | 1010.9 |
| 20260905223015 | 79 | 0 | 0.0 | 2.0 | 0.02 | 0.04 | 0.04 | 91 | 1011.2 |
| 20260905222016 | 79 | 0 | 0.0 | 2.0 | 0.02 | 0.04 | 0.04 | 91 | 1011.1 |
| 20260905221015 | 79 | 0 | 0.0 | 0.0 | 0.02 | 0.04 | 0.04 | 91 | 1011.0 |